Terminal Aerodrome Forecast
Issued by NWS

Current Version | Previous Version | Graphics & Text | Print | Product List | Glossary On
Versions: 1 2 3 4 5 6 7 8 9 10 11 12 13 14 15 16 17 18 19 20 21 22 23 24
000
FTUS41 KRNK 231122
TAFLWB
TAF
KLWB 231122Z 2312/2412 00000KT P6SM SKC
     FM231600 11006KT P6SM SCT060 SCT250
     FM240000 VRB02KT P6SM SKC
     FM240600 VRB02KT 5SM BR SKC=

USA.gov is the U.S. government's official web portal to all federal, state and local government web resources and services.